Volver al catálogo

NOAA 16 DEB

ActivoSSO
NORAD 41216·DEBRIS·🇺🇸 United States

Lanzado Sep 21, 2000 desde Vandenberg Space Force Base

Loading…

Próximos Pases (próximas 24 horas)

TLE

ActualizadoSource: Space-Track

Época: Sep 13, 2026, 19:33 UTC

1 41216U 00055DV  26256.81464634  .00001364  00000-0  90903-3 0  9999
2 41216  98.9365 206.5238 0094966 304.9249  54.3022 14.00704158546794

Sigue NOAA 16 DEB en tiempo real con AllMySat

Download on the App Store